シフレオ彗星

108P/Ciffreo (2000)

English version
Home page
Updated on December 25, 2007

---------------------------------------------------------------------

・ プロフィール

・ 軌道要素

   The following improved orbital elements by Kenji Muraoka, are 
  from 102 observations  1985 to 1999, including 9 Planets, Moon 
  and 5 minor planets perturbations and non-gravitational effect 
  of style II.    The mean residual is +/- 0.93 arc seconds.

      Epoch  =  2000 Apr.  6.0  TT       JDT = 2451640.5
          T  =  2000 Apr. 18.39097       +/- 0.00230 (m.e.) TT
       Peri. =  358.04249                +/- 0.00128
       Node  =   53.72152                +/- 0.00007   (2000.0)
       Incl. =   13.09288                +/- 0.00004
          q  =    1.7133555              +/- 0.0000025 AU
          e  =    0.5426166              +/- 0.0000029
          a  =    3.7459937              +/- 0.0000066 AU
          n  =    0.13594195             +/- 0.00000036
          P  =    7.250                  +/- 0.0000192  years
         A1  =   +0.243                  +/- 0.367
         A2  =   -0.02479                +/- 0.00364

・ 星図

・ 光度変化

        m1 = 9.0 + 5 logΔ + 25.0 log r

---------------------------------------------------------------------

軌道要素は村岡健治氏の計算によるものです。
星図は StellaNavigator Ver.2.0 for Windows (アストロアーツ 編著 / アスキー出版局刊) で作成したものです。
光度グラフはComet for Windowsで作成したものです。

---------------------------------------------------------------------

Copyright(C) Seiichi Yoshida (comet@aerith.net). All rights reserved.